Regional Weather Roundup
Issued by NWS

Home | Current Version | Previous Version | Graphics & Text | Print | Product List | Glossary On
Versions: 1 2 3 4 5 6 7 8 9 10 11 12 13 14 15 16 17 18 19 20 21 22 23 24 25 26 27 28 29 30 31 32 33 34 35 36 37 38 39 40 41 42 43 44 45 46 47 48 49 50
000
ASUS43 KFSD 220102
RWRSD

WEATHER ROUNDUP FOR SOUTH DAKOTA
NATIONAL WEATHER SERVICE SIOUX FALLS SD
800 PM CDT SUN SEP 21 2014

NOTE: "FAIR" INDICATES FEW OR NO CLOUDS BELOW 12,000 FEET WITH NO
SIGNIFICANT WEATHER AND/OR OBSTRUCTIONS TO VISIBILITY.


SDZ001>005-009-010-012>017-220200-
NORTHWEST AND NORTH CENTRAL SOUTH DAKOTA

CITY           SKY/WX    TMP DP  RH WIND       PRES   REMARKS
FAITH            N/A     63  39  41 SE9       30.24S
MOBRIDGE       CLEAR     56  48  74 E5        30.20F
$$

SDZ012>016-024>037-041>051-057-063-072>074-220200-
SOUTHWEST AND SOUTH CENTRAL SOUTH DAKOTA

CITY           SKY/WX    TMP DP  RH WIND       PRES   REMARKS
RAPID CTY ARPT CLEAR     61  41  47 SE7       30.25F
PIERRE         CLEAR     63  42  46 CALM      30.22S
CUSTER         CLEAR     59  35  40 SE6       30.34F
ELLSWORTH AFB  CLEAR     64  39  40 S8        30.25S
PHILIP         CLEAR     61  38  42 E7        30.23S
PINE RIDGE     CLEAR     59  43  55 E6        30.27S
WINNER         FAIR      68  40  35 CALM      30.25S
$$

SDZ004>011-016>023-039-040-220200-
NORTHEAST SOUTH DAKOTA

CITY           SKY/WX    TMP DP  RH WIND       PRES   REMARKS
ABERDEEN       CLEAR     56  48  74 SE3       30.22F
WATERTOWN      CLEAR     58  46  64 CALM      30.23S
SISSETON         N/A     52  50  93 CALM      30.21S
$$

SDZ017-020-022-023-036>040-048>070-220200-
SOUTHEAST SOUTH DAKOTA

CITY           SKY/WX    TMP DP  RH WIND       PRES   REMARKS
SIOUX FALLS    CLEAR     57  46  66 N7        30.23S
HURON          CLEAR     59  45  59 NE5       30.23S
CHAMBERLAIN    CLEAR     64  44  47 E3        30.24S
MITCHELL       CLEAR     61  47  59 CALM      30.24S
YANKTON        CLEAR     63  46  55 N5        30.24S
$$

ABBREVIATIONS USED IN REMARKS
   TC - TEMPERATURE IN CELSIUS
  WCI - WIND CHILL INDEX
   HX - HEAT INDEX
  VSB - VISIBILITY



USA.gov is the U.S. government's official web portal to all federal, state and local government web resources and services.